TimeCST,TemperatureF,Dew PointF,Humidity,Sea Level PressureIn,VisibilityMPH,Wind Direction,Wind SpeedMPH,Gust SpeedMPH,PrecipitationIn,Events,Conditions,WindDirDegrees,DateUTC
12:11 AM,6.8,3.2,85,29.65,10.0,Calm,Calm,-,N/A,,Clear,0,2013-02-13 06:11:00
12:31 AM,6.8,5.0,92,29.65,10.0,Calm,Calm,-,N/A,,Clear,0,2013-02-13 06:31:00
12:51 AM,6.8,3.2,85,29.65,10.0,Calm,Calm,-,N/A,,Scattered Clouds,0,2013-02-13 06:51:00
1:11 AM,5.0,3.2,92,29.65,10.0,Calm,Calm,-,N/A,,Clear,0,2013-02-13 07:11:00
1:31 AM,5.0,1.4,85,29.65,10.0,Calm,Calm,-,N/A,,Clear,0,2013-02-13 07:31:00
1:51 AM,3.2,1.4,92,29.64,10.0,Calm,Calm,-,N/A,,Clear,0,2013-02-13 07:51:00
2:11 AM,3.2,1.4,92,29.64,10.0,Calm,Calm,-,N/A,,Scattered Clouds,0,2013-02-13 08:11:00
2:31 AM,5.0,1.4,85,29.64,10.0,Calm,Calm,-,N/A,,Mostly Cloudy,0,2013-02-13 08:31:00
2:51 AM,6.8,5.0,92,29.63,10.0,Calm,Calm,-,N/A,,Overcast,0,2013-02-13 08:51:00
3:11 AM,10.4,8.6,92,29.63,10.0,South,3.5,-,N/A,,Overcast,190,2013-02-13 09:11:00
3:31 AM,12.2,10.4,92,29.63,10.0,Calm,Calm,-,N/A,,Scattered Clouds,0,2013-02-13 09:31:00
3:51 AM,8.6,6.8,92,29.63,10.0,Calm,Calm,-,N/A,,Clear,0,2013-02-13 09:51:00
4:11 AM,6.8,3.2,85,29.63,10.0,Calm,Calm,-,N/A,,Clear,0,2013-02-13 10:11:00
4:31 AM,5.0,1.4,85,29.62,10.0,Calm,Calm,-,N/A,,Clear,0,2013-02-13 10:31:00
4:51 AM,3.2,1.4,92,29.63,10.0,Calm,Calm,-,N/A,,Clear,0,2013-02-13 10:51:00
5:11 AM,3.2,-0.4,85,29.63,10.0,Calm,Calm,-,N/A,,Clear,0,2013-02-13 11:11:00
5:31 AM,1.4,-0.4,92,29.62,10.0,South,3.5,-,N/A,,Scattered Clouds,180,2013-02-13 11:31:00
5:51 AM,3.2,-0.4,85,29.62,10.0,Calm,Calm,-,N/A,,Mostly Cloudy,0,2013-02-13 11:51:00
6:11 AM,3.2,1.4,92,29.62,10.0,Calm,Calm,-,N/A,,Overcast,0,2013-02-13 12:11:00
6:31 AM,6.8,3.2,85,29.62,10.0,Calm,Calm,-,N/A,,Overcast,0,2013-02-13 12:31:00
6:51 AM,8.6,6.8,92,29.62,10.0,Calm,Calm,-,N/A,,Overcast,0,2013-02-13 12:51:00
7:11 AM,8.6,6.8,92,29.62,10.0,Calm,Calm,-,N/A,,Overcast,0,2013-02-13 13:11:00
7:31 AM,12.2,10.4,92,29.62,10.0,Calm,Calm,-,N/A,,Overcast,0,2013-02-13 13:31:00
7:51 AM,15.8,15.8,100,29.63,10.0,Calm,Calm,-,N/A,,Overcast,0,2013-02-13 13:51:00
8:11 AM,17.6,15.8,93,29.63,10.0,NW,4.6,-,N/A,,Overcast,320,2013-02-13 14:11:00
8:31 AM,19.4,17.6,93,29.63,7.0,NNW,4.6,-,N/A,,Overcast,330,2013-02-13 14:31:00
8:51 AM,19.4,17.6,93,29.63,10.0,Calm,Calm,-,N/A,,Overcast,0,2013-02-13 14:51:00
9:11 AM,19.4,19.4,100,29.63,10.0,Calm,Calm,-,N/A,,Overcast,0,2013-02-13 15:11:00
9:31 AM,21.2,19.4,93,29.63,10.0,Calm,Calm,-,N/A,,Overcast,0,2013-02-13 15:31:00
9:51 AM,21.2,19.4,93,29.63,10.0,Calm,Calm,-,N/A,,Overcast,0,2013-02-13 15:51:00
10:11 AM,21.2,19.4,93,29.64,10.0,Calm,Calm,-,N/A,,Overcast,0,2013-02-13 16:11:00
10:31 AM,24.8,21.2,86,29.64,10.0,Calm,Calm,-,N/A,,Overcast,0,2013-02-13 16:31:00
11:11 AM,26.6,24.8,93,29.64,10.0,Calm,Calm,-,N/A,,Overcast,0,2013-02-13 17:11:00
11:31 AM,28.4,24.8,86,29.64,10.0,Calm,Calm,-,N/A,,Overcast,0,2013-02-13 17:31:00
11:51 AM,28.4,24.8,86,29.64,10.0,Calm,Calm,-,N/A,,Overcast,0,2013-02-13 17:51:00
12:11 PM,28.4,26.6,93,29.63,10.0,Calm,Calm,-,N/A,,Overcast,0,2013-02-13 18:11:00
12:31 PM,28.4,26.6,93,29.62,10.0,Calm,Calm,-,N/A,,Overcast,0,2013-02-13 18:31:00
12:51 PM,28.4,26.6,93,29.62,10.0,Calm,Calm,-,N/A,,Overcast,0,2013-02-13 18:51:00
1:11 PM,30.2,26.6,86,29.62,10.0,Calm,Calm,-,N/A,,Overcast,0,2013-02-13 19:11:00
1:31 PM,30.2,28.4,93,29.62,10.0,Calm,Calm,-,N/A,,Overcast,0,2013-02-13 19:31:00
1:51 PM,30.2,26.6,86,29.61,10.0,Calm,Calm,-,N/A,,Overcast,0,2013-02-13 19:51:00
2:11 PM,32.0,28.4,87,29.61,10.0,Calm,Calm,-,N/A,,Overcast,0,2013-02-13 20:11:00
2:32 PM,32.0,26.6,80,29.61,10.0,Calm,Calm,-,N/A,,Overcast,0,2013-02-13 20:32:00
2:51 PM,30.2,26.6,86,29.61,10.0,Calm,Calm,-,N/A,,Overcast,0,2013-02-13 20:51:00
3:11 PM,30.2,26.6,86,29.61,10.0,Calm,Calm,-,N/A,,Overcast,0,2013-02-13 21:11:00
3:32 PM,30.2,26.6,86,29.61,10.0,Calm,Calm,-,N/A,,Overcast,0,2013-02-13 21:32:00
3:51 PM,30.2,26.6,86,29.61,10.0,Calm,Calm,-,N/A,,Overcast,0,2013-02-13 21:51:00
4:11 PM,28.4,24.8,86,29.62,10.0,Calm,Calm,-,N/A,,Overcast,0,2013-02-13 22:11:00
4:31 PM,28.4,24.8,86,29.61,10.0,Calm,Calm,-,N/A,,Overcast,0,2013-02-13 22:31:00
4:51 PM,26.6,21.2,80,29.62,10.0,Calm,Calm,-,N/A,,Scattered Clouds,0,2013-02-13 22:51:00
5:11 PM,24.8,19.4,80,29.62,10.0,Calm,Calm,-,N/A,,Clear,0,2013-02-13 23:11:00
5:31 PM,23.0,19.4,86,29.63,10.0,Calm,Calm,-,N/A,,Mostly Cloudy,0,2013-02-13 23:31:00
5:51 PM,24.8,19.4,80,29.63,10.0,Calm,Calm,-,N/A,,Overcast,0,2013-02-13 23:51:00
6:11 PM,23.0,19.4,86,29.64,10.0,Calm,Calm,-,N/A,,Overcast,0,2013-02-14 00:11:00
6:31 PM,24.8,21.2,86,29.65,10.0,Calm,Calm,-,N/A,,Overcast,0,2013-02-14 00:31:00
6:51 PM,24.8,21.2,86,29.65,10.0,Calm,Calm,-,N/A,,Overcast,0,2013-02-14 00:51:00
7:11 PM,23.0,21.2,93,29.65,10.0,Calm,Calm,-,N/A,,Overcast,0,2013-02-14 01:11:00
7:31 PM,23.0,19.4,86,29.65,10.0,Calm,Calm,-,N/A,,Overcast,0,2013-02-14 01:31:00
7:51 PM,23.0,19.4,86,29.65,10.0,Calm,Calm,-,N/A,,Overcast,0,2013-02-14 01:51:00
8:11 PM,23.0,19.4,86,29.65,10.0,Calm,Calm,-,N/A,,Overcast,0,2013-02-14 02:11:00
8:31 PM,21.2,19.4,93,29.65,10.0,Calm,Calm,-,N/A,,Overcast,0,2013-02-14 02:31:00
8:51 PM,21.2,19.4,93,29.65,10.0,Calm,Calm,-,N/A,Snow,Light Snow,0,2013-02-14 02:51:00
9:11 PM,21.2,19.4,93,29.65,7.0,Calm,Calm,-,N/A,,Overcast,0,2013-02-14 03:11:00
9:31 PM,21.2,19.4,93,29.65,10.0,Calm,Calm,-,N/A,,Overcast,0,2013-02-14 03:31:00
9:51 PM,21.2,19.4,93,29.65,10.0,Calm,Calm,-,N/A,,Overcast,0,2013-02-14 03:51:00
10:11 PM,21.2,19.4,93,29.65,10.0,Calm,Calm,-,N/A,,Overcast,0,2013-02-14 04:11:00
10:31 PM,21.2,19.4,93,29.65,10.0,Calm,Calm,-,N/A,,Overcast,0,2013-02-14 04:31:00
10:51 PM,21.2,19.4,93,29.66,10.0,Calm,Calm,-,N/A,,Overcast,0,2013-02-14 04:51:00
11:11 PM,21.2,19.4,93,29.66,10.0,Calm,Calm,-,N/A,,Overcast,0,2013-02-14 05:11:00
11:31 PM,21.2,19.4,93,29.66,10.0,Calm,Calm,-,N/A,,Overcast,0,2013-02-14 05:31:00
11:51 PM,21.2,19.4,93,29.67,10.0,Calm,Calm,-,N/A,,Overcast,0,2013-02-14 05:51:00